Weather History for Cape Girardeau, MO

Change the Weather History Date:

Thursday, August 21, 2014

  Actual Average Record
Temperature  
Mean Temperature 83 °F 77 °F  
Max Temperature 90 °F 89 °F 100 °F (1983)
Min Temperature 75 °F 65 °F 51 °F (1961)
Degree Days  
Heating Degree Days 0 0  
Month to date heating degree days 0 0  
Since 1 June heating degree days 0 4  
Since 1 July heating degree days 0 0  
Cooling Degree Days 18 12  
Month to date cooling degree days 230 267  
Year to date cooling degree days 1075 1153  
Since 1 June cooling degree days 864 1001  
Growing Degree Days 32 (Base 50)    
Moisture  
Dew Point 74 °F    
Average Humidity 77    
Maximum Humidity 94    
Minimum Humidity 59    
Precipitation  
Precipitation 0.00 in 0.10 in 1.60 in (1989)
Month to date precipitation 2.86 2.01  
Year to date precipitation 31.67 30.04  
Sea Level Pressure  
Sea Level Pressure 30.00 in    
Wind  
Wind Speed 8 mph (SSW)    
Max Wind Speed 15 mph    
Max Gust Speed 20 mph    
Visibility 9 miles    
Events      
T = Trace of Precipitation, MM = Missing Value Source: NWS Daily Summary

Daily Weather History Graph

Daily Weather History Graph

Search for Another Location

Airport:

Trip Planner

Search our weather history database for the weather conditions in past years. The results will help you decide how hot, cold, wet, or windy it might be!

Date:

Astronomy

Aug. 21, 2014 Rise Set
Actual Time 6:19 AM CDT 7:42 PM CDT
Civil Twilight 5:52 AM CDT 8:09 PM CDT
Nautical Twilight 5:19 AM CDT 8:42 PM CDT
Astronomical Twilight 4:45 AM CDT 9:16 PM CDT
Moon 2:52 AM CDT (8/21) 5:09 PM CDT (8/21)
Length of Visible Light 14h 17m
Length of Day
13h 22m
Waning Crescent, 13% of the Moon is Illuminated
Aug 21
Waning Crescent
Aug 25
New
Sep 2
First Quarter
Sep 8
Full
Sep 15
Last Quarter

Hourly Weather History & Observations

Time (CDT) Temp. Heat Index Dew Point Humidity Pressure Visibility Wind Dir Wind Speed Gust Speed Precip Events Conditions
12:53 AM 80.1 °F 84.2 °F 73.0 °F 79% 30.00 in 10.0 mi South 9.2 mph - N/A   Clear
1:53 AM 78.1 °F - 73.0 °F 84% 29.99 in 10.0 mi South 8.1 mph - N/A   Clear
2:53 AM 77.0 °F - 73.0 °F 88% 29.99 in 10.0 mi SSW 4.6 mph - N/A   Clear
3:53 AM 75.0 °F - 73.0 °F 94% 29.99 in 10.0 mi SSE 5.8 mph - N/A   Clear
4:53 AM 75.9 °F - 73.0 °F 91% 30.00 in 10.0 mi SSW 3.5 mph - N/A   Partly Cloudy
5:53 AM 75.9 °F - 73.0 °F 91% 30.01 in 10.0 mi Calm Calm - N/A   Clear
6:53 AM 75.0 °F - 73.0 °F 94% 30.03 in 9.0 mi South 4.6 mph - N/A   Clear
7:53 AM 78.1 °F - 73.9 °F 87% 30.03 in 10.0 mi Variable 3.5 mph - N/A   Clear
8:53 AM 81.0 °F 86.2 °F 73.9 °F 79% 30.04 in 6.0 mi SW 10.4 mph - N/A   Haze
9:53 AM 82.9 °F 90.2 °F 75.0 °F 77% 30.05 in 9.0 mi SW 9.2 mph - N/A   Clear
10:53 AM 87.1 °F 96.3 °F 75.0 °F 67% 30.04 in 10.0 mi SW 8.1 mph - N/A   Clear
11:53 AM 88.0 °F 97.5 °F 75.0 °F 65% 30.04 in 9.0 mi SSW 9.2 mph - N/A   Clear
12:53 PM 89.1 °F 99.1 °F 75.0 °F 63% 30.03 in 10.0 mi SSW 10.4 mph - N/A   Clear
1:53 PM 89.1 °F 98.0 °F 73.9 °F 61% 30.01 in 10.0 mi SSW 10.4 mph - N/A   Clear
2:53 PM 89.1 °F 98.0 °F 73.9 °F 61% 29.99 in 6.0 mi SSW 11.5 mph 18.4 mph N/A   Haze
3:53 PM 88.0 °F 97.5 °F 75.0 °F 65% 29.99 in 10.0 mi SSW 10.4 mph 19.6 mph N/A   Clear
4:30 PM 88.0 °F 98.5 °F 75.9 °F 67% 29.99 in 2.0 mi South 11.5 mph - N/A   Haze
4:39 PM 87.8 °F 97.6 °F 75.2 °F 66% 29.98 in 10.0 mi South 10.4 mph - N/A   Clear
4:53 PM 89.1 °F 100.2 °F 75.9 °F 65% 29.97 in 10.0 mi South 10.4 mph - N/A   Clear
5:53 PM 88.0 °F 98.5 °F 75.9 °F 67% 29.96 in 10.0 mi South 11.5 mph - N/A   Clear
6:53 PM 86.0 °F 96.0 °F 75.9 °F 72% 29.95 in 10.0 mi South 11.5 mph - N/A   Clear
7:53 PM 84.0 °F 91.9 °F 75.0 °F 74% 29.95 in 10.0 mi South 8.1 mph - N/A   Clear
8:53 PM 82.9 °F 89.4 °F 73.9 °F 74% 29.97 in 10.0 mi South 9.2 mph - N/A   Clear
9:53 PM 82.4 °F 88.2 °F 73.4 °F 74% 30.00 in 10.0 mi SSW 9.2 mph - N/A   Clear
10:53 PM 80.1 °F 84.5 °F 73.9 °F 81% 30.00 in 10.0 mi South 6.9 mph - N/A   Clear
11:53 PM 79.0 °F - 73.0 °F 82% 30.01 in 10.0 mi SSW 3.5 mph - N/A   Clear